Tracking 32460 objects as of 11-Dec-2025
HD Live streaming from Space Station
objects crossing your sky now

STARLINK-31057

Track STARLINK-31057 now!
10-day predictions
STARLINK-31057 is classified as:


NORAD ID: 58545
Int'l Code: 2023-192Q
Perigee: 481.5 km
Apogee: 483.2 km
Inclination: 53.2 °
Period: 94.1 minutes
Semi major axis: 6853 km
RCS: Unknown
Launch date: December 8, 2023
Source: United States (US)
Launch site: AIR FORCE WESTERN TEST RANGE (AFWTR)
Your satellite tracking list
Your tracking list is empty




NASA's NSSDC Master Catalog

Two Line Element Set (TLE):
1 58545U 23192Q   25345.06540155 -.00000460  00000-0 -34092-5 0  9994
2 58545  53.1600 114.5979 0001224  68.1067 292.0064 15.30198307112416
Source of the keplerian elements: AFSPC